Regional Weather Roundup
Issued by NWS

Home | Current Version | Previous Version | Graphics & Text | Print | Product List | Glossary On
Versions: 1 2 3 4 5 6 7 8 9 10 11 12 13 14 15 16 17 18 19 20 21 22 23 24 25 26 27 28 29 30 31 32 33 34 35 36 37 38 39 40 41 42 43 44 45 46 47 48 49 50
000
ASUS44 KMEG 100600
RWRTN
TENNESSEE HOURLY STATE WEATHER ROUNDUP
NATIONAL WEATHER SERVICE MEMPHIS TN
100 AM CDT THU JUL 10 2014

TNZ002-004-019-021-049-052-054-088>092-100700-
WEST TENNESSEE

CITY           SKY/WX    TMP DP  RH WIND       PRES   REMARKS
MEMPHIS INTL   PTCLDY    74  70  87 CALM      30.04S
NWS MEMPHIS      N/A     70 N/A N/A MISG        N/A
JACKSON        FOG       68  67  96 CALM      30.04R VSB 1
DYERSBURG      CLEAR     70  61  73 CALM      30.05S
UNION CITY     CLEAR     66  66 100 CALM      30.03R
LEXINGTON      CLOUDY    66  66 100 CALM      30.03S VSB 1/4
$$

TNZ008-025-027-028-033-062-065-066-100700-
NORTH MIDDLE TENNESSEE

CITY           SKY/WX    TMP DP  RH WIND       PRES   REMARKS
NASHVILLE      PTCLDY    74  66  76 CALM      30.03S
CLARKSVILLE    CLEAR     67  62  84 CALM      30.03S
COOKEVILLE     MOCLDY    70  70 100 CALM      30.05S
CROSSVILLE     CLOUDY    70  66  87 CALM      30.09F FOG
$$

TNZ061-075-076-078-094-096-097-100700-
SOUTH MIDDLE TENNESSEE

CITY           SKY/WX    TMP DP  RH WIND       PRES   REMARKS
TULLAHOMA      CLOUDY    70  70 100 CALM      30.07S VSB 1/2
WINCHESTER     CLEAR     68  66  94 CALM      30.05F
MCMINNVILLE    MOCLDY    72  72 100 CALM      30.06S
COLUMBIA       CLOUDY    72  72 100 CALM      30.03S
$$

TNZ017-018-042-046-047-100700-
NORTHEAST TENNESSEE

CITY           SKY/WX    TMP DP  RH WIND       PRES   REMARKS
TRI CITIES     MOCLDY    70  63  78 W6        30.08F
ELIZABETHTON   DRIZZLE   68  66  94 E3        30.09F
$$

TNZ012-013-036-069-073-074-100700-
CENTRAL EAST TENNESSEE

CITY           SKY/WX    TMP DP  RH WIND       PRES   REMARKS
KNOXVILLE      MOCLDY    69  68  96 CALM      30.05F
OAK RIDGE      PTCLDY    69  67  93 CALM      30.06F
$$

TNZ083-085-099-100700-
SOUTHEAST TENNESSEE

CITY           SKY/WX    TMP DP  RH WIND       PRES   REMARKS
CHATTANOOGA    PTCLDY    72  69  90 E3        30.05
$$

SKY/WX REPORTED AS FAIR MEANS FEW OR NO CLOUDS BELOW
12 THOUSAND FEET.




USA.gov is the U.S. government's official web portal to all federal, state and local government web resources and services.